Regional Weather Roundup
Issued by NWS

Home | Current Version | Previous Version | Text Only | Print | Product List | Glossary Off
Versions: 1 2 3 4 5 6 7 8 9 10 11 12 13 14 15 16 17 18 19 20 21 22 23 24 25 26 27 28 29 30 31 32 33 34 35 36 37 38 39 40 41 42 43 44 45 46 47 48 49 50

000
ASUS45 KPSR 011510
RWRAZ

ARIZONA REGIONAL HOURLY WEATHER ROUNDUP
NATIONAL WEATHER SERVICE PHOENIX AZ
800 AM MST WED APR 01 2015

NOTE: FAIR INDICATES FEW OR NO CLOUDS BELOW 12,000 FEET WITH NO
SIGNIFICANT WEATHER AND/OR OBSTRUCTIONS TO VISIBILITY.

AZZ001>003-036-011600-
NORTHWEST ARIZONA

CITY           SKY/WX    TMP DP  RH WIND       PRES   REMARKS
BULLHEAD CITY  SUNNY     66  21  18 CALM      29.88R
KINGMAN        SUNNY     58  27  30 SE5       29.95R
$$

AZZ004>008-015-016-018-011600-
NORTH CENTRAL ARIZONA

CITY           SKY/WX    TMP DP  RH WIND       PRES   REMARKS
GRAND CANYON   MOSUNNY   49  32  52 SW12      30.04S
WILLIAMS       SUNNY     54  27  35 SW14G20   30.12R
PRESCOTT       SUNNY     58  33  39 SE3       30.01R
FLAGSTAFF      SUNNY     50  32  50 SW10      30.07R
PAYSON         SUNNY     59  37  44 CALM      30.06S
$$

AZZ009>014-017-011600-
NORTHEAST ARIZONA

CITY           SKY/WX    TMP DP  RH WIND       PRES   REMARKS
WINSLOW        SUNNY     61  35  37 S10       30.02R
SAINT JOHNS    SUNNY     58  34  40 S10       30.06F
WINDOW ROCK    SUNNY     56  30  37 SW12      30.07S
SHOW LOW       MOSUNNY   54  32  43 SW16      30.11S
$$

AZZ023-011600-
GREATER PHOENIX AREA

CITY           SKY/WX    TMP DP  RH WIND       PRES   REMARKS
PHOENIX        MOSUNNY   73  42  32 E10       29.87R
BUCKEYE        SUNNY     72  45  37 SE7       29.88S
GLENDALE       MOSUNNY   72  45  37 E3        29.89R
LUKE AFB       SUNNY     72  43  35 SE3       29.87R
DEER VALLEY    SUNNY     72  40  31 SE8       29.88S
SCOTTSDALE     SUNNY     71  43  36 CALM      29.91R
MESA-FALCON    MOSUNNY   72  41  33 VRB7      29.89S
MESA-GATEWAY   MOSUNNY   68  45  42 SE5       29.91S
CHANDLER       MOSUNNY   72  45  37 E3        29.89R
$$

AZZ027-028-011600-
SOUTHWEST MARICOPA COUNTY AND PINAL COUNTY

CITY           SKY/WX    TMP DP  RH WIND       PRES   REMARKS
CASA GRANDE    SUNNY     70  43  37 E3        29.90S
GILA BEND      SUNNY     74  40  29 SE10      29.86R
$$

AZZ503-504-507>509-011600-
SOUTHEAST ARIZONA

CITY           SKY/WX    TMP DP  RH WIND       PRES   REMARKS
TUCSON         SUNNY     68  45  43 SE9       30.00R
DAVIS-MONTHAN  SUNNY     68  45  43 E9        29.99R
RYAN FIELD       N/A     73  50  43 E6        29.98R
NOGALES        SUNNY     59  46  62 S3        30.06R
SIERRA VISTA   SUNNY     58  42  54 VRB2      30.08R
DOUGLAS        SUNNY     58  46  64 S6        30.07R
SAFFORD        SUNNY     63  40  42 S3        29.99R
$$

AZZ020-021-025-026-031-011600-
SOUTHWEST ARIZONA

CITY           SKY/WX    TMP DP  RH WIND       PRES   REMARKS
YUMA           SUNNY     68  43  40 CALM      29.86R
$$

CAZ031-033-041-043-047-048-061-011600-
SOUTHERN CALIFORNIA

CITY           SKY/WX    TMP DP  RH WIND       PRES   REMARKS
DOWNTOWN L.A.  PTSUNNY   62  53  72 CALM      30.00R
L.A. AIRPORT   PTSUNNY   59  55  87 CALM      30.01R
SAN DIEGO      MOSUNNY   63  50  62 E6        29.99S
BURBANK        SUNNY     57  49  74 N5        30.00R
ONTARIO        PTSUNNY   57  49  74 SW7       29.99R
RIVERSIDE      CLOUDY    58  51  78 S3        29.99R
PALM SPRINGS   SUNNY     69  41  36 VRB3      29.88R
EL CENTRO NAS  MOSUNNY   69  29  22 NW3       29.86R
IMPERIAL       SUNNY     69  36  29 W9        29.85R
BLYTHE         SUNNY     69  28  21 SW5       29.86R
NEEDLES        SUNNY     72  22  15 CALM      29.86R
$$

NVZ020-UTZ003-011600-
SOUTHERN NEVADA-UTAH

CITY           SKY/WX    TMP DP  RH WIND       PRES   REMARKS
LAS VEGAS      MOSUNNY   66  17  15 SE7       29.89R
SALT LAKE CITY MOSUNNY   42  22  44 N12       30.13R
$$

NMZ009-TXZ055-011600-
NEW MEXICO-WEST TEXAS

CITY           SKY/WX    TMP DP  RH WIND       PRES   REMARKS
ALBUQUERQUE    MOSUNNY   58  29  33 S6        30.02S
EL PASO        SUNNY     64  43  46 SW10      29.99R
$$


........................KEY........................
SKY/WX - SKY CONDITION/WEATHER
TMP    - TEMPERATURE IN FAHRENHEIT
DP     - DEW POINT IN FAHRENHEIT
RH     - RELATIVE HUMIDITY IN PERCENT
WIND   - DIRECTION AND SPEED IN MILES PER HOUR (MPH)
VRB    - VARIABLE WIND DIRECTION
PRES   - MEAN SEA LEVEL PRESSURE IN INCHES OF MERCURY
         F - FALLING PRESSURE   R - RISING PRESSURE
         S - STEADY PRESSURE
VSB    - VISIBILITY IN MILES
HX     - HEAT INDEX IN FAHRENHEIT
WCI    - WIND CHILL INDEX IN FAHRENHEIT
TC     - TEMPERATURE IN CELSIUS WHICH IS ALSO KNOWN AS
         TEMPERATURE IN CENTIGRADE
AFB    - AIR FORCE BASE
         LUKE AFB IS LUKE AIR FORCE BASE
         DAVIS-MONTHAN IS DAVIS-MONTHAN AIR FORCE BASE
NAS    - NAVAL AIR STATION
         EL CENTRO NAS IS EL CENTRO NAVAL AIR STATION
N/A    - NOT AVAILABLE



USA.gov is the U.S. government's official web portal to all federal, state and local government web resources and services.